Weather History for Barnwell, SC

Change the Weather History Date:

Monday, October 7, 2013

  Actual Average (KOGB) Record (KOGB)
Temperature  
Mean Temperature 74 °F 68 °F  
Max Temperature 78 °F 79 °F 97 °F (1954)
Min Temperature 71 °F 57 °F 37 °F (1980)
Degree Days  
Heating Degree Days 0 1  
Month to date heating degree days 7  
Since 1 July heating degree days 11  
Cooling Degree Days 10 4  
Month to date cooling degree days 37  
Year to date cooling degree days 2031  
Growing Degree Days 24 (Base 50)    
Moisture  
Dew Point 73 °F    
Average Humidity 94    
Maximum Humidity 100    
Minimum Humidity 83    
Precipitation  
Precipitation 0.17 in 0.14 in 2.28 in (1965)
Month to date precipitation 1.02  
Year to date precipitation 38.12  
Sea Level Pressure  
Sea Level Pressure 29.87 in    
Wind  
Wind Speed 1 mph (SE)    
Max Wind Speed 12 mph    
Max Gust Speed -    
Visibility 9 miles    
Events Rain    
T = Trace of Precipitation, MM = Missing Value Source: NWS Daily Summary

Daily Weather History Graph

Daily Weather History Graph

Search for Another Location

Airport:

Trip Planner

Search our weather history database for the weather conditions in past years. The results will help you decide how hot, cold, wet, or windy it might be!

Date:

Astronomy

Oct. 07, 2013 Rise Set
Actual Time 7:24 AM EDT 7:01 PM EDT
Civil Twilight 6:59 AM EDT 7:26 PM EDT
Nautical Twilight 6:30 AM EDT 7:55 PM EDT
Astronomical Twilight 6:01 AM EDT 8:23 PM EDT
Moon 10:03 AM EDT (10/7) 8:55 PM EDT (10/7)
Length of Visible Light 12h 27m
Length of Day
11h 37m
Waxing Crescent, 8% of the Moon is Illuminated
Oct 7
Waxing Crescent
Oct 11
First Quarter
Oct 18
Full
Oct 26
Last Quarter
Nov 3
New

Hourly Weather History & Observations

Time (EDT) Temp. Dew Point Humidity Pressure Visibility Wind Dir Wind Speed Gust Speed Precip Events Conditions
12:15 AM 73.4 °F 71.6 °F 94% 29.92 in 10.0 mi SSE 4.6 mph - N/A   Clear
12:35 AM 73.4 °F 71.6 °F 94% 29.91 in 10.0 mi Calm Calm - N/A   Clear
12:55 AM 73.4 °F 71.6 °F 94% 29.91 in 10.0 mi Calm Calm - N/A   Clear
1:15 AM 73.4 °F 71.6 °F 94% 29.90 in 10.0 mi Calm Calm - N/A   Scattered Clouds
1:35 AM 73.4 °F 71.6 °F 94% 29.89 in 10.0 mi Calm Calm - N/A   Mostly Cloudy
1:55 AM 73.4 °F 71.6 °F 94% 29.88 in 10.0 mi SE 4.6 mph - N/A   Overcast
2:15 AM 73.4 °F 73.4 °F 100% 29.88 in 10.0 mi SSE 4.6 mph - N/A   Overcast
2:35 AM 73.4 °F 73.4 °F 100% 29.88 in 10.0 mi SSE 4.6 mph - N/A   Overcast
2:55 AM 73.4 °F 73.4 °F 100% 29.88 in 10.0 mi South 3.5 mph - N/A   Overcast
3:15 AM 73.4 °F 73.4 °F 100% 29.87 in 10.0 mi Calm Calm - N/A   Overcast
3:35 AM 73.4 °F 73.4 °F 100% 29.86 in 10.0 mi Calm Calm - N/A   Overcast
3:55 AM 73.4 °F 73.4 °F 100% 29.86 in 10.0 mi Calm Calm - N/A   Mostly Cloudy
4:15 AM 75.2 °F 73.4 °F 94% 29.85 in 10.0 mi Calm Calm - N/A   Overcast
4:35 AM 73.4 °F 73.4 °F 100% 29.86 in 10.0 mi Calm Calm - N/A   Overcast
4:55 AM 75.2 °F 73.4 °F 94% 29.86 in 10.0 mi Calm Calm - N/A   Overcast
5:15 AM 73.4 °F 73.4 °F 100% 29.86 in 7.0 mi Calm Calm - N/A   Overcast
5:35 AM 73.4 °F 73.4 °F 100% 29.86 in 10.0 mi Calm Calm - N/A   Overcast
5:55 AM 73.4 °F 73.4 °F 100% 29.86 in 10.0 mi Calm Calm - N/A   Mostly Cloudy
6:15 AM 73.4 °F 73.4 °F 100% 29.86 in 10.0 mi Calm Calm - N/A   Mostly Cloudy
6:35 AM 73.4 °F 73.4 °F 100% 29.86 in 10.0 mi Calm Calm - N/A   Mostly Cloudy
6:55 AM 73.4 °F 73.4 °F 100% 29.86 in 10.0 mi Calm Calm - N/A   Scattered Clouds
7:15 AM 73.4 °F 73.4 °F 100% 29.86 in 9.0 mi Calm Calm - N/A   Scattered Clouds
7:35 AM 73.4 °F 73.4 °F 100% 29.86 in 10.0 mi Calm Calm - N/A   Scattered Clouds
7:55 AM 73.4 °F 73.4 °F 100% 29.87 in 8.0 mi Calm Calm - N/A   Partly Cloudy
8:15 AM 73.4 °F 73.4 °F 100% 29.87 in 7.0 mi Calm Calm - N/A   Scattered Clouds
8:35 AM 73.4 °F 73.4 °F 100% 29.87 in 9.0 mi Calm Calm - N/A   Overcast
8:55 AM 73.4 °F 73.4 °F 100% 29.88 in 10.0 mi Calm Calm - N/A   Overcast
9:15 AM 75.2 °F 73.4 °F 94% 29.88 in 10.0 mi Calm Calm - N/A   Overcast
9:35 AM 75.2 °F 73.4 °F 94% 29.89 in 10.0 mi Calm Calm - N/A   Mostly Cloudy
9:55 AM 77.0 °F 73.4 °F 89% 29.89 in 10.0 mi Calm Calm - N/A   Mostly Cloudy
10:15 AM 77.0 °F 73.4 °F 89% 29.90 in 10.0 mi Calm Calm - N/A   Overcast
10:35 AM 77.0 °F 73.4 °F 89% 29.89 in 10.0 mi Calm Calm - N/A   Overcast
10:55 AM 78.8 °F 73.4 °F 83% 29.88 in 10.0 mi Calm Calm - N/A   Overcast
11:15 AM 78.8 °F 73.4 °F 83% 29.88 in 10.0 mi Calm Calm - N/A   Overcast
11:35 AM 78.8 °F 73.4 °F 83% 29.88 in 10.0 mi Calm Calm - N/A   Scattered Clouds
11:55 AM 78.8 °F 73.4 °F 83% 29.87 in 10.0 mi Calm Calm - N/A   Clear
12:15 PM 78.8 °F 73.4 °F 83% 29.87 in 9.0 mi Calm Calm - N/A   Light Drizzle
12:35 PM 78.8 °F 73.4 °F 83% 29.88 in 10.0 mi Calm Calm - N/A   Partly Cloudy
12:55 PM 77.0 °F 75.2 °F 94% 29.87 in 8.0 mi Calm Calm - N/A   Light Drizzle
1:15 PM 77.0 °F 75.2 °F 94% 29.86 in 7.0 mi Calm Calm - N/A   Partly Cloudy
1:35 PM 77.0 °F 75.2 °F 94% 29.86 in 8.0 mi Calm Calm - N/A   Scattered Clouds
1:55 PM 77.0 °F 75.2 °F 94% 29.86 in 5.0 mi Calm Calm - N/A   Light Drizzle
2:15 PM 77.0 °F 75.2 °F 94% 29.86 in 4.0 mi Calm Calm - N/A Rain Light Rain
2:35 PM 75.2 °F 75.2 °F 100% 29.86 in 2.5 mi Calm Calm - 0.03 in Rain Heavy Rain
2:55 PM 75.2 °F 73.4 °F 94% 29.85 in 3.0 mi Calm Calm - 0.17 in   Drizzle
3:15 PM 75.2 °F 73.4 °F 94% 29.84 in 9.0 mi Calm Calm - N/A   Light Drizzle
3:35 PM 75.2 °F 75.2 °F 100% 29.83 in 8.0 mi Calm Calm - N/A   Clear
3:55 PM 77.0 °F 75.2 °F 94% 29.82 in 9.0 mi Calm Calm - N/A   Clear
4:15 PM 78.8 °F 73.4 °F 83% 29.82 in 10.0 mi Calm Calm - N/A   Clear
4:35 PM 78.8 °F 73.4 °F 83% 29.83 in 10.0 mi Calm Calm - N/A   Clear
4:55 PM 78.8 °F 73.4 °F 83% 29.82 in 10.0 mi Calm Calm - N/A   Clear
5:15 PM 78.8 °F 73.4 °F 83% 29.83 in 10.0 mi Calm Calm - N/A   Clear
5:35 PM 78.8 °F 75.2 °F 89% 29.83 in 10.0 mi Calm Calm - N/A   Clear
5:55 PM 78.8 °F 75.2 °F 89% 29.84 in 10.0 mi Calm Calm - N/A   Scattered Clouds
6:15 PM 77.0 °F 75.2 °F 94% 29.84 in 10.0 mi Calm Calm - N/A   Scattered Clouds
6:35 PM 77.0 °F 75.2 °F 94% 29.84 in 10.0 mi Calm Calm - N/A   Clear
6:55 PM 75.2 °F 73.4 °F 94% 29.86 in 10.0 mi Calm Calm - N/A   Partly Cloudy
7:15 PM 75.2 °F 75.2 °F 100% 29.86 in 9.0 mi Calm Calm - N/A   Mostly Cloudy
7:35 PM 75.2 °F 73.4 °F 94% 29.85 in 10.0 mi East 6.9 mph - N/A   Mostly Cloudy
7:55 PM 75.2 °F 73.4 °F 94% 29.86 in 9.0 mi ENE 4.6 mph - N/A   Drizzle
8:15 PM 75.2 °F 71.6 °F 89% 29.87 in 10.0 mi SE 6.9 mph - N/A   Mostly Cloudy
8:35 PM 75.2 °F 69.8 °F 83% 29.88 in 10.0 mi South 3.5 mph - N/A   Light Drizzle
8:55 PM 73.4 °F 71.6 °F 94% 29.88 in 10.0 mi Calm Calm - N/A   Drizzle
9:15 PM 73.4 °F 71.6 °F 94% 29.89 in 10.0 mi Calm Calm - N/A   Light Drizzle
9:35 PM 73.4 °F 71.6 °F 94% 29.90 in 9.0 mi Calm Calm - N/A   Partly Cloudy
9:55 PM 71.6 °F 71.6 °F 100% 29.90 in 10.0 mi Calm Calm - N/A   Scattered Clouds
10:15 PM 71.6 °F 71.6 °F 100% 29.90 in 10.0 mi Calm Calm - N/A   Drizzle
10:35 PM 71.6 °F 71.6 °F 100% 29.91 in 8.0 mi Calm Calm - N/A   Partly Cloudy
10:55 PM 71.6 °F 71.6 °F 100% 29.91 in 10.0 mi Calm Calm - N/A   Clear
11:15 PM 71.6 °F 71.6 °F 100% 29.92 in 10.0 mi North 8.1 mph - N/A   Mostly Cloudy
11:35 PM 71.6 °F 71.6 °F 100% 29.93 in 10.0 mi North 9.2 mph - N/A   Mostly Cloudy
11:55 PM 71.6 °F 69.8 °F 94% 29.94 in 10.0 mi North 11.5 mph - N/A   Mostly Cloudy